Location: Unspecified
(0.0000°N, 0.0000°E)
Time: 01:55:09
(UTC+00:00)

OTV 5 (USA 277) - Pass Details

Date: 18 February 2019
Orbit: 342 x 346 km, 54.5° (Epoch: 09 February)

Event Time Altitude Azimuth Distance (km) Brightness Sun altitude
Rises 19:36:16 0° 246° (WSW) 2,133 ? -20.2°
Reaches altitude 10° 19:39:28 10° 285° (WNW) 1,288 ? -20.9°
Maximum altitude 19:40:19 11° 303° (WNW) 1,233 ? -21.1°
Drops below altitude 10° 19:41:10 10° 320° (NW) 1,285 ? -21.4°
Enters shadow 19:42:00 - 335° (NNW) 1,428 ? -21.6°
